Redwood Falls, MN

7:02 AM CST on November 12, 2019 (GMT -0600)
Redwood Falls Municipal

Weather History for KRWF - October, 2019

Change the Weather History Date:

Saturday, October 12, 2019

  Actual Average Record
Temperature  
Mean Temperature 34 °F -  
Max Temperature 37 °F 59 °F 87 °F (1975)
Min Temperature 32 °F 39 °F 19 °F (2012)
Degree Days  
Heating Degree Days 30    
Moisture  
Dew Point 29 °F    
Average Humidity 82    
Maximum Humidity 92    
Minimum Humidity 70    
Precipitation  
Precipitation 0.00 in - - ()
Sea Level Pressure  
Sea Level Pressure 29.67 in    
Wind  
Wind Speed 16 mph ()    
Max Wind Speed 26 mph    
Max Gust Speed 38 mph    
Visibility 7.1 miles    
Events Snow    
Averages and records for this station are not official NWS values.
T = Trace of Precipitation, MM = Missing Value Source: Averaged Metar Reports

Daily Weather History Graph

Daily Weather History Graph

Search for Another Location

Airport or City:

Astronomy

Oct. 12, 2019 Rise Set
Actual Time 7:31 AM CDT 6:41 PM CDT
Civil Twilight 7:02 AM CDT 7:10 PM CDT
Nautical Twilight 6:28 AM CDT 7:44 PM CDT
Astronomical Twilight 5:54 AM CDT 8:18 PM CDT
Moon 6:42 PM CDT 6:03 AM CDT
Length of Visible Light 12h 08m
Length of Day
11h 09m
Waxing Gibbous, 99% of the Moon is Illuminated
Oct 12
Waxing Gibbous
Oct 13
Full
Oct 21
Last Quarter
Oct 27
New
Nov 4
First Quarter

Hourly Weather History & Observations

Time (CDT) Temp. Windchill Dew Point Humidity Pressure Visibility Wind Dir Wind Speed Gust Speed Precip Events Conditions
12:53 AM 33.1 °F 22.6 °F 25.0 °F 72% 29.77 in 10.0 mi WSW 16.1 mph 28.8 mph N/A   Overcast
1:53 AM 32.0 °F 20.8 °F 25.0 °F 75% 29.75 in 10.0 mi WSW 17.3 mph 28.8 mph N/A   Partly Cloudy
2:53 AM 32.0 °F 20.8 °F 25.0 °F 75% 29.75 in 10.0 mi WSW 17.3 mph 32.2 mph N/A   Clear
3:53 AM 32.0 °F 20.5 °F 25.0 °F 75% 29.73 in 10.0 mi WSW 18.4 mph 35.7 mph N/A   Overcast
4:53 AM 32.0 °F 19.5 °F 25.0 °F 75% 29.71 in 9.0 mi WSW 21.9 mph 32.2 mph N/A   Overcast
5:53 AM 33.1 °F 21.5 °F 26.1 °F 75% 29.69 in 9.0 mi WSW 19.6 mph 31.1 mph 0.00 in   Overcast
6:38 AM 32.0 °F 21.6 °F 28.0 °F 85% 29.65 in 2.0 mi WSW 15.0 mph 26.5 mph 0.00 in Snow Light Snow
6:48 AM 32.0 °F 21.6 °F 28.4 °F 87% 29.65 in 1.8 mi WSW 15.0 mph 27.6 mph 0.00 in Snow Light Snow
6:53 AM 32.0 °F 21.6 °F 28.9 °F 88% 29.68 in 3.0 mi WSW 15.0 mph 25.3 mph 0.00 in Snow Light Snow
7:09 AM 32.0 °F 21.2 °F 28.9 °F 88% 29.64 in 2.0 mi WSW 16.1 mph 25.3 mph 0.00 in Snow Light Snow
7:26 AM 32.0 °F 21.2 °F 28.9 °F 88% 29.64 in 1.5 mi WSW 16.1 mph 26.5 mph 0.00 in Snow Light Snow
8:02 AM 32.0 °F 21.2 °F 30.0 °F 92% 29.64 in 0.8 mi WSW 16.1 mph 27.6 mph 0.00 in Snow Light Snow
8:24 AM 32.0 °F 20.1 °F 30.0 °F 92% 29.63 in 0.8 mi WSW 19.6 mph 29.9 mph 0.00 in Snow Light Snow
8:29 AM 32.0 °F 21.2 °F 30.0 °F 92% 29.63 in 1.0 mi WSW 16.1 mph 27.6 mph 0.00 in Snow Light Snow
8:36 AM 32.0 °F 20.1 °F 30.0 °F 92% 29.63 in 2.5 mi WSW 19.6 mph 32.2 mph 0.00 in Snow Light Snow
8:43 AM 32.0 °F 20.5 °F 30.0 °F 92% 29.63 in 6.0 mi WSW 18.4 mph 32.2 mph 0.00 in Snow Light Snow
8:53 AM 33.1 °F 21.9 °F 30.0 °F 89% 29.66 in - WSW 18.4 mph 29.9 mph 0.00 in   Unknown
9:46 AM 34.0 °F 22.4 °F 28.9 °F 82% 29.61 in 10.0 mi WSW 20.7 mph 29.9 mph N/A   Overcast
9:53 AM 35.1 °F 24.1 °F 30.0 °F 82% 29.64 in 10.0 mi WSW 19.6 mph 33.4 mph N/A   Overcast
10:53 AM 35.1 °F 23.3 °F 30.0 °F 82% 29.64 in 10.0 mi WSW 23.0 mph 36.8 mph N/A   Overcast
11:01 AM 35.1 °F 24.5 °F 30.0 °F 82% 29.61 in 6.0 mi WSW 18.4 mph 34.5 mph 0.00 in Snow Light Snow
11:16 AM 34.0 °F 22.7 °F 30.9 °F 89% 29.62 in 1.8 mi West 19.6 mph 34.5 mph 0.00 in Snow Light Snow
11:35 AM 34.0 °F 22.7 °F 32.0 °F 92% 29.62 in 3.0 mi West 19.6 mph 29.9 mph 0.00 in Snow Light Snow
11:53 AM 35.1 °F 24.1 °F 32.0 °F 89% 29.65 in 8.0 mi WSW 19.6 mph 29.9 mph 0.00 in Snow Light Snow
12:10 PM 34.0 °F 23.0 °F 30.9 °F 89% 29.62 in 2.0 mi WSW 18.4 mph 33.4 mph 0.00 in Snow Light Snow
12:20 PM 34.0 °F 23.8 °F 32.0 °F 92% 29.62 in 1.8 mi WSW 16.1 mph 29.9 mph 0.00 in Snow Light Snow
12:45 PM 34.0 °F 23.4 °F 32.0 °F 92% 29.62 in 3.0 mi WSW 17.3 mph 27.6 mph 0.00 in Snow Light Snow
12:53 PM 34.0 °F 23.4 °F 32.0 °F 92% 29.65 in 3.0 mi WSW 17.3 mph 28.8 mph 0.00 in Snow Light Snow
1:32 PM 35.1 °F 24.8 °F 32.0 °F 89% 29.62 in 10.0 mi WSW 17.3 mph 29.9 mph 0.00 in   Overcast
1:53 PM 36.0 °F 26.0 °F 32.0 °F 86% 29.64 in 10.0 mi West 17.3 mph 31.1 mph 0.00 in   Overcast
2:07 PM 37.0 °F 27.4 °F 32.0 °F 82% 29.61 in 10.0 mi West 17.3 mph 29.9 mph N/A   Overcast
2:22 PM 37.0 °F 25.9 °F 30.0 °F 76% 29.61 in 10.0 mi West 23.0 mph 34.5 mph N/A   Overcast
2:53 PM 37.0 °F 26.7 °F 28.9 °F 73% 29.65 in 10.0 mi West 19.6 mph 33.4 mph N/A   Overcast
3:48 PM 37.4 °F 25.6 °F 28.4 °F 70% 29.63 in 10.0 mi West 26.5 mph 38.0 mph N/A   Overcast
3:53 PM 37.0 °F 25.6 °F 28.0 °F 70% 29.66 in 10.0 mi West 24.2 mph 35.7 mph N/A   Overcast
4:53 PM 36.0 °F 24.4 °F 28.0 °F 73% 29.68 in 10.0 mi West 23.0 mph 34.5 mph N/A   Overcast
5:53 PM 36.0 °F 25.6 °F 28.0 °F 73% 29.69 in 10.0 mi West 18.4 mph 29.9 mph N/A   Overcast
6:53 PM 36.0 °F 25.6 °F 28.0 °F 73% 29.71 in 10.0 mi West 18.4 mph 29.9 mph N/A   Overcast
7:39 PM 36.0 °F 28.0 °F 28.9 °F 76% 29.69 in 10.0 mi West 11.5 mph 23.0 mph N/A   Overcast
7:53 PM 36.0 °F 26.0 °F 28.0 °F 73% 29.73 in 10.0 mi West 17.3 mph 29.9 mph N/A   Overcast
8:00 PM 36.0 °F 25.6 °F 28.0 °F 73% 29.71 in 10.0 mi West 18.4 mph 28.8 mph N/A   Overcast
8:53 PM 36.0 °F 25.6 °F 28.0 °F 73% 29.74 in 10.0 mi West 18.4 mph 26.5 mph N/A   Overcast
9:53 PM 35.1 °F 24.8 °F 28.0 °F 76% 29.74 in 10.0 mi West 17.3 mph 28.8 mph N/A   Overcast
10:09 PM 35.1 °F 25.2 °F 28.0 °F 76% 29.71 in 10.0 mi West 16.1 mph - N/A   Overcast
10:21 PM 35.1 °F 25.9 °F 28.9 °F 78% 29.71 in 10.0 mi West 13.8 mph - N/A   Overcast
10:53 PM 35.1 °F 25.2 °F 28.9 °F 78% 29.73 in 10.0 mi West 16.1 mph 25.3 mph N/A   Overcast
11:53 PM 35.1 °F 25.2 °F 28.9 °F 78% 29.74 in 10.0 mi West 16.1 mph 24.2 mph N/A   Overcast